DW4360 Weather Reports


time (UTC)temp
F
wind
direction
speed
knots
gust
knots
rain 1hr
in
rain 24hr
in
rain mn
in
humidity
%
barometer
mb
20260506031717 62 325 0.0 0.0 0.00 0.00 0.00 75 1014.4
20260506030716 63 325 0.0 0.0 0.00 0.00 0.00 73 1014.3
20260506024714 64 325 0.0 0.0 0.00 0.00 0.00 73 1014.0
20260506023713 64 325 0.0 0.0 0.00 0.00 0.00 72 1014.0
20260506022712 64 325 0.0 0.0 0.00 0.00 0.00 71 1014.0
20260506020710 64 327 0.0 0.0 0.00 0.00 0.00 71 1014.0
20260506015709 64 327 0.0 0.0 0.00 0.00 0.00 71 1014.0
20260506014708 64 327 0.0 0.0 0.00 0.00 0.00 71 1014.0
20260506013707 64 327 0.0 0.0 0.00 0.00 0.00 70 1014.1
20260506012706 64 327 0.0 0.0 0.00 0.00 0.00 69 1014.0
20260506011705 64 323 0.0 0.0 0.00 0.00 0.00 70 1014.0
20260506005703 65 322 0.0 0.0 0.00 0.00 0.00 70 1014.1
20260506004702 65 322 0.0 0.0 0.00 0.00 0.00 70 1014.2
20260506003701 65 321 0.0 0.0 0.00 0.00 0.00 71 1014.2
20260506002700 65 325 0.0 0.0 0.00 0.00 0.00 70 1014.2
20260506001659 65 325 0.0 0.0 0.00 0.00 0.00 70 1014.2
20260506000658 65 325 0.0 0.0 0.00 0.00 0.00 70 1014.3
20260505235657 65 325 0.0 0.0 0.00 0.00 0.00 70 1014.4
20260505234656 65 325 0.0 0.0 0.00 0.00 0.00 71 1014.5
20260505233655 65 330 0.0 0.0 0.00 0.00 0.00 71 1014.6
20260505232654 65 329 2.6 0.0 0.00 0.00 0.00 71 1014.6
20260505231653 65 327 0.0 0.0 0.00 0.00 0.00 70 1014.7
20260505230652 65 329 0.0 0.0 0.00 0.00 0.00 70 1014.7
20260505225651 65 329 0.0 0.0 0.00 0.00 0.00 72 1014.7
20260505224650 64 332 3.5 0.0 0.00 0.00 0.00 72 1014.8
20260505223649 64 345 0.0 0.0 0.00 0.00 0.00 73 1014.9
20260505222648 64 344 0.0 0.0 0.00 0.00 0.00 74 1014.9
20260505221647 64 322 0.0 0.0 0.00 0.00 0.00 74 1015.0
20260505220646 63 330 0.0 0.0 0.00 0.00 0.00 74 1015.0
20260505215645 63 330 0.0 0.0 0.00 0.00 0.00 73 1015.1
20260505213642 63 329 0.0 0.0 0.00 0.00 0.00 74 1015.1
20260505212641 63 329 0.0 0.0 0.00 0.00 0.00 74 1015.2
20260505211640 63 329 0.0 0.0 0.00 0.00 0.00 75 1015.2
20260505210639 63 332 0.0 0.0 0.00 0.00 0.00 73 1015.2
20260505205639 63 336 1.7 0.0 0.00 0.00 0.00 74 1015.3
20260505204638 63 323 0.0 0.0 0.00 0.00 0.00 73 1015.4
20260505203637 63 323 0.0 0.0 0.00 0.00 0.00 74 1015.4
20260505202635 63 323 0.0 0.0 0.00 0.00 0.00 73 1015.5
20260505201635 63 325 0.0 0.0 0.00 0.00 0.00 72 1015.4
20260505200633 63 326 3.5 0.0 0.00 0.00 0.00 71 1015.5
20260505195633 64 211 0.0 0.0 0.00 0.00 0.00 70 1015.5
20260505194631 64 211 0.9 0.0 0.00 0.00 0.00 72 1015.5
20260505192629 64 207 0.0 0.0 0.00 0.00 0.00 71 1015.6
20260505191628 64 207 0.0 0.0 0.00 0.00 0.00 71 1015.6
20260505190628 63 279 0.0 0.0 0.00 0.00 0.00 72 1015.6
20260505184625 62 279 0.0 0.0 0.00 0.00 0.00 75 1015.6
20260505183624 61 236 0.0 0.0 0.00 0.00 0.00 76 1015.8
20260505182623 61 236 0.0 0.0 0.00 0.00 0.00 76 1015.8
20260505181622 60 236 0.0 0.0 0.00 0.00 0.00 78 1015.7
20260505180621 60 236 0.0 0.0 0.00 0.00 0.00 77 1015.6
20260505175620 60 236 0.0 0.0 0.00 0.00 0.00 79 1015.6
20260505173619 60 236 0.0 0.0 0.00 0.00 0.00 77 1015.6
20260505172617 59 232 0.0 0.0 0.00 0.00 0.00 79 1015.6
20260505171616 59 232 0.0 0.0 0.00 0.00 0.00 79 1015.4
20260505170615 59 233 0.0 0.0 0.00 0.00 0.00 79 1015.3
20260505165614 59 233 0.0 0.0 0.00 0.00 0.00 79 1015.3
20260505164613 59 195 0.0 0.0 0.00 0.00 0.00 80 1015.3
20260505163612 58 265 0.0 0.0 0.00 0.00 0.00 79 1015.2
20260505162611 58 217 0.0 0.0 0.00 0.00 0.00 79 1015.2
20260505161610 58 217 0.0 0.0 0.00 0.00 0.00 81 1015.1
20260505160609 58 217 0.0 0.0 0.00 0.00 0.00 81 1015.1
20260505152605 56 217 0.0 0.0 0.00 0.00 0.00 84 1015.0
20260505150603 56 217 0.0 0.0 0.00 0.00 0.00 85 1015.0
20260505124549 55 217 0.0 0.0 0.00 0.00 0.00 84 1013.9
20260505123548 55 217 0.0 0.0 0.00 0.00 0.00 84 1013.9
20260505122547 55 217 0.0 0.0 0.00 0.00 0.00 84 1013.9
20260505121546 55 217 0.0 0.0 0.00 0.00 0.00 84 1013.9
20260505120545 55 217 0.0 0.0 0.00 0.00 0.00 84 1013.8
20260505112541 55 217 0.0 0.0 0.00 0.00 0.00 85 1013.7
20260505111540 55 217 0.0 0.0 0.00 0.00 0.00 84 1013.8
20260505110539 55 217 0.0 0.0 0.00 0.00 0.00 84 1013.7
20260505095532 55 216 0.0 0.0 0.00 0.00 0.00 83 1013.3
20260505094532 55 209 0.0 0.0 0.00 0.00 0.00 83 1013.2
20260505092528 56 249 0.0 0.0 0.00 0.00 0.00 81 1013.1
20260505091527 56 250 0.0 0.0 0.00 0.00 0.00 81 1013.0
20260505090526 56 250 0.0 0.0 0.00 0.00 0.00 80 1012.9
20260505085526 57 261 0.0 0.0 0.00 0.00 0.00 80 1012.8
20260505081522 58 270 0.0 0.0 0.00 0.00 0.00 78 1012.6
20260505080521 59 270 0.0 0.0 0.00 0.00 0.00 78 1012.6
20260505075519 59 270 0.0 0.0 0.00 0.00 0.00 78 1012.5
20260505074518 59 270 0.0 0.0 0.00 0.00 0.00 78 1012.4
20260505073517 59 270 0.0 0.0 0.00 0.00 0.00 76 1012.2
20260505071515 60 270 0.0 0.0 0.00 0.00 0.00 76 1012.0
20260505070515 60 272 0.0 0.0 0.00 0.00 0.00 76 1011.9
20260505065514 60 263 0.0 0.0 0.00 0.00 0.00 76 1011.8
20260505064512 61 321 0.0 0.0 0.00 0.00 0.00 76 1011.7
20260505063511 61 321 0.0 0.0 0.00 0.00 0.00 75 1011.5
20260505062510 62 327 0.0 0.0 0.00 0.00 0.00 74 1011.4
20260505061509 62 329 0.0 0.0 0.00 0.00 0.00 74 1011.2
20260505060509 63 329 0.0 0.0 0.00 0.00 0.00 73 1011.1
20260505055507 63 329 0.0 0.0 0.00 0.00 0.00 73 1011.2
20260505053505 64 329 0.0 0.0 0.00 0.00 0.00 71 1011.0
20260505052504 65 331 0.0 0.0 0.00 0.00 0.00 70 1010.9
20260505050502 66 331 0.0 0.0 0.00 0.00 0.00 69 1010.7
20260505041457 68 281 3.5 0.0 0.00 0.00 0.00 68 1010.0
20260505035455 68 210 0.0 0.0 0.00 0.00 0.00 70 1009.7
20260505033453 69 209 0.0 0.0 0.00 0.00 0.00 70 1009.3